EW5900 Weather Reports


Display with metric or nautical units.
time (UTC)temp
F
wind
direction
speed
MPH
gust
MPH
rain 1hr
in
rain 24hr
in
rain mn
in
humidity
%
barometer
mb
20210619144905 81 0 4.0 6.0 0.00 0.00 0.00 76 1019.3
20210619144430 80 338 6.0 9.0 0.00 0.00 0.00 76 1019.6
20210619143955 81 338 6.0 6.0 0.00 0.00 0.00 76 1019.3
20210619143520 80 0 5.0 8.0 0.00 0.00 0.00 75 1019.3
20210619143045 81 23 5.0 6.0 0.00 0.00 0.00 76 1019.3
20210619142610 80 0 5.0 8.0 0.00 0.00 0.00 76 1019.3
20210619142135 80 338 5.0 8.0 0.00 0.00 0.00 76 1019.3
20210619141700 80 338 5.0 6.0 0.00 0.00 0.00 75 1019.3
20210619141225 80 338 6.0 6.0 0.00 0.00 0.00 76 1019.3
20210619140750 81 0 6.0 6.0 0.00 0.00 0.00 76 1019.3
20210619140315 80 23 3.0 6.0 0.00 0.00 0.00 77 1019.3
20210619135840 80 315 5.0 7.0 0.00 0.00 0.00 77 1019.3
20210619135405 80 338 6.0 8.0 0.00 0.00 0.00 77 1019.3
20210619134930 80 315 8.0 8.0 0.00 0.00 0.00 78 1019.3
20210619134023 80 293 7.0 9.0 0.00 0.00 0.00 79 1019.3
20210619133548 80 293 6.0 8.0 0.00 0.00 0.00 79 1019.3
20210619133113 80 315 8.0 8.0 0.00 0.00 0.00 81 1019.3
20210619132638 79 315 7.0 7.0 0.00 0.00 0.00 82 1018.9
20210619132203 79 338 4.0 8.0 0.00 0.00 0.00 83 1018.9
20210619131256 78 338 4.0 7.0 0.00 0.00 0.00 84 1018.9
20210619130821 78 293 6.0 7.0 0.00 0.00 0.00 84 1018.9
20210619130346 78 315 7.0 7.0 0.00 0.00 0.00 85 1018.9
20210619125911 78 315 5.0 6.0 0.00 0.00 0.00 85 1018.9
20210619125004 78 338 5.0 7.0 0.00 0.00 0.00 85 1018.9
20210619124529 78 315 7.0 7.0 0.00 0.00 0.00 85 1018.9
20210619123150 77 338 4.0 6.0 0.00 0.00 0.00 85 1018.6
20210619122715 77 315 5.0 5.0 0.00 0.00 0.00 85 1018.6
20210619122239 77 315 6.0 6.0 0.00 0.00 0.00 85 1018.6
20210619121805 77 293 5.0 7.0 0.00 0.00 0.00 85 1018.9
20210619121329 77 315 5.0 6.0 0.00 0.00 0.00 85 1018.6
20210619120854 77 315 5.0 6.0 0.00 0.00 0.00 86 1018.6
20210619120419 77 315 6.0 6.0 0.00 0.00 0.00 85 1018.9
20210619115944 77 315 6.0 7.0 0.00 0.00 0.00 85 1018.6
20210619115509 77 315 7.0 7.0 0.00 0.00 0.00 85 1018.6
20210619115034 77 315 6.0 6.0 0.00 0.00 0.00 85 1018.6
20210619114559 77 338 5.0 6.0 0.00 0.00 0.00 85 1018.6
20210619114124 77 315 6.0 6.0 0.00 0.00 0.00 85 1018.6
20210619113649 77 315 5.0 5.0 0.00 0.00 0.00 85 1018.6
20210619113214 77 270 5.0 5.0 0.00 0.00 0.00 85 1018.6
20210619112739 77 315 3.0 4.0 0.00 0.00 0.00 85 1018.6
20210619112306 77 45 2.0 4.0 0.00 0.00 0.00 85 1018.6
20210619111829 77 338 3.0 5.0 0.00 0.00 0.00 85 1018.6
20210619111354 77 315 4.0 4.0 0.00 0.00 0.00 85 1018.6
20210619110919 77 338 4.0 5.0 0.00 0.00 0.00 85 1018.6
20210619110444 77 45 2.0 4.0 0.00 0.00 0.00 85 1018.6
20210619110009 77 338 3.0 3.0 0.00 0.00 0.00 85 1018.6
20210619105534 77 0 3.0 3.0 0.00 0.00 0.00 85 1018.6
20210619104627 77 315 5.0 5.0 0.00 0.00 0.00 85 1018.6
20210619104152 77 338 2.0 5.0 0.00 0.00 0.00 85 1018.6
20210619103717 76 0 5.0 5.0 0.00 0.00 0.00 85 1018.6
20210619103242 76 23 2.0 5.0 0.00 0.00 0.00 86 1018.6
20210619102807 76 315 5.0 5.0 0.00 0.00 0.00 86 1018.6
20210619102332 76 315 5.0 4.0 0.00 0.00 0.00 86 1018.6
20210619101857 76 338 3.0 5.0 0.00 0.00 0.00 86 1018.6
20210619100950 76 315 7.0 7.0 0.00 0.00 0.00 86 1018.6
20210619100515 76 315 5.0 7.0 0.00 0.00 0.00 86 1018.6
20210619100039 76 293 6.0 6.0 0.00 0.00 0.00 86 1018.6
20210619095605 76 315 5.0 5.0 0.00 0.00 0.00 86 1018.2
20210619095129 77 315 5.0 5.0 0.00 0.00 0.00 86 1018.2
20210619094654 77 315 5.0 5.0 0.00 0.00 0.00 86 1018.2
20210619094219 76 315 5.0 5.0 0.00 0.00 0.00 86 1018.2
20210619093744 77 338 3.0 5.0 0.00 0.00 0.00 86 1018.2
20210619092837 77 315 5.0 5.0 0.00 0.00 0.00 86 1017.9
20210619092402 77 0 3.0 3.0 0.00 0.00 0.00 86 1018.2
20210619091927 77 338 3.0 3.0 0.00 0.00 0.00 86 1017.9
20210619091452 77 23 2.0 5.0 0.00 0.00 0.00 86 1017.9
20210619091017 77 338 3.0 3.0 0.00 0.00 0.00 86 1018.2
20210619090542 77 338 3.0 3.0 0.00 0.00 0.00 86 1018.2
20210619085635 77 45 2.0 3.0 0.00 0.00 0.00 86 1018.2
20210619085200 77 338 2.0 2.0 0.00 0.00 0.00 86 1018.2
20210619084725 77 113 1.0 4.0 0.00 0.00 0.00 86 1017.9
20210619084250 77 0 1.0 3.0 0.00 0.00 0.00 86 1017.9
20210619083814 77 338 2.0 4.0 0.00 0.00 0.00 86 1017.9
20210619083340 77 315 4.0 4.0 0.00 0.00 0.00 86 1017.9
20210619082904 77 315 3.0 5.0 0.00 0.00 0.00 86 1017.9
20210619082429 77 0 3.0 5.0 0.00 0.00 0.00 86 1017.9
20210619081954 77 338 3.0 5.0 0.00 0.00 0.00 86 1017.9
20210619081519 77 338 3.0 6.0 0.00 0.00 0.00 86 1017.9
20210619081044 77 315 4.0 5.0 0.00 0.00 0.00 86 1017.9
20210619080609 77 315 3.0 6.0 0.00 0.00 0.00 86 1017.9
20210619080134 77 315 6.0 6.0 0.00 0.00 0.00 86 1017.6
20210619075659 77 0 2.0 5.0 0.00 0.00 0.00 86 1017.9
20210619074752 77 338 3.0 4.0 0.00 0.00 0.00 86 1017.9
20210619074317 77 338 4.0 5.0 0.00 0.00 0.00 86 1017.9
20210619073842 77 315 3.0 5.0 0.00 0.00 0.00 86 1017.9
20210619073407 77 0 5.0 5.0 0.00 0.00 0.00 86 1017.9
20210619072932 77 23 3.0 5.0 0.00 0.00 0.00 86 1017.6
20210619072457 77 0 5.0 5.0 0.00 0.00 0.00 86 1017.9
20210619072022 77 45 3.0 5.0 0.00 0.00 0.00 86 1017.9
20210619071547 77 23 4.0 4.0 0.00 0.00 0.00 85 1017.9
20210619070640 77 45 2.0 3.0 0.00 0.00 0.00 85 1017.9
20210619064829 77 0 3.0 3.0 0.00 0.00 0.00 85 1017.9
20210619064354 77 23 2.0 3.0 0.00 0.00 0.00 85 1017.9
20210619063919 77 68 1.0 2.0 0.00 0.00 0.00 84 1017.9
20210619063443 77 90 1.0 1.0 0.00 0.00 0.00 84 1017.9
20210619063009 77 68 1.0 1.0 0.00 0.00 0.00 84 1017.9
20210619062533 77 90 1.0 2.0 0.00 0.00 0.00 84 1017.9
20210619062059 77 68 2.0 3.0 0.00 0.00 0.00 85 1017.9
20210619061624 77 338 3.0 3.0 0.00 0.00 0.00 84 1017.9
20210619061149 77 45 3.0 3.0 0.00 0.00 0.00 84 1017.9
20210619060714 77 68 2.0 2.0 0.00 0.00 0.00 84 1017.9
20210619060238 77 68 2.0 4.0 0.00 0.00 0.00 84 1017.9
20210619055803 77 23 4.0 3.0 0.00 0.00 0.00 84 1017.9
20210619055329 77 68 2.0 3.0 0.00 0.00 0.00 84 1018.2
20210619054853 77 0 2.0 3.0 0.00 0.00 0.00 84 1018.2
20210619054418 77 23 3.0 3.0 0.00 0.00 0.00 84 1018.2
20210619053511 78 338 1.0 3.0 0.00 0.00 0.00 84 1018.6
20210619053036 78 23 1.0 2.0 0.00 0.00 0.00 84 1018.6
20210619052129 78 45 2.0 3.0 0.00 0.00 0.00 84 1018.6
20210619051654 78 90 1.0 2.0 0.00 0.00 0.00 83 1018.9
20210619051219 78 45 2.0 3.0 0.00 0.00 0.00 83 1018.9
20210619050744 78 68 1.0 2.0 0.00 0.00 0.00 83 1018.9
20210619050309 78 338 2.0 3.0 0.00 0.00 0.00 83 1018.9
20210619045834 78 90 1.0 2.0 0.00 0.00 0.00 83 1018.9
20210619045359 78 90 1.0 2.0 0.00 0.00 0.00 83 1018.9
20210619044452 78 113 1.0 3.0 0.00 0.00 0.00 83 1018.9
20210619043545 78 45 3.0 3.0 0.00 0.00 0.00 83 1018.9
20210619042638 78 45 3.0 3.0 0.00 0.00 0.00 83 1018.9
20210619042203 78 68 2.0 3.0 0.00 0.00 0.00 83 1018.9
20210619041728 78 68 1.0 3.0 0.00 0.00 0.00 83 1019.3
20210619041253 78 45 2.0 2.0 0.00 0.00 0.00 83 1019.3
20210619040818 78 90 1.0 2.0 0.00 0.00 0.00 83 1019.3
20210619035911 78 68 2.0 3.0 0.00 0.00 0.00 83 1019.3
20210619035436 78 0 3.0 3.0 0.00 0.00 0.00 83 1019.3
20210619035000 78 45 3.0 3.0 0.00 0.00 0.00 83 1019.3
20210619034525 78 90 3.0 5.0 0.00 0.00 0.00 83 1019.3
20210619034050 78 90 2.0 5.0 0.00 0.00 0.00 83 1019.3
20210619033615 78 68 4.0 4.0 0.00 0.00 0.00 83 1019.3
20210619033140 78 45 5.0 6.0 0.00 0.00 0.00 83 1019.3
20210619032705 78 23 6.0 6.0 0.00 0.00 0.00 83 1019.3
20210619032230 78 23 5.0 5.0 0.00 0.00 0.00 83 1019.3
20210619031755 78 45 5.0 6.0 0.00 0.00 0.00 82 1019.3
20210619031320 78 45 6.0 5.0 0.00 0.00 0.00 82 1019.3
20210619030845 79 90 3.0 5.0 0.00 0.00 0.00 82 1019.3
20210619030410 79 90 5.0 5.0 0.00 0.00 0.00 82 1019.3
20210619025935 79 68 3.0 6.0 0.00 0.00 0.00 81 1018.9
20210619025500 79 68 3.0 6.0 0.00 0.00 0.00 81 1018.9
20210619025025 79 45 6.0 6.0 0.00 0.00 0.00 80 1018.9
20210619024550 79 90 3.0 5.0 0.00 0.00 0.00 79 1018.9
20210619024115 80 45 5.0 5.0 0.00 0.00 0.00 79 1018.9
20210619023208 80 68 5.0 5.0 0.00 0.00 0.00 78 1018.9
20210619022733 80 68 5.0 6.0 0.00 0.00 0.00 77 1018.9
20210619022258 80 68 6.0 6.0 0.00 0.00 0.00 77 1018.9
20210619021823 80 90 5.0 5.0 0.00 0.00 0.00 77 1018.9
20210619021348 80 68 4.0 4.0 0.00 0.00 0.00 77 1018.9
20210619020913 80 90 4.0 6.0 0.00 0.00 0.00 77 1018.9
20210619020438 80 90 4.0 6.0 0.00 0.00 0.00 77 1018.9
20210619015531 80 68 6.0 6.0 0.00 0.00 0.00 77 1018.9
20210619015056 80 45 5.0 6.0 0.00 0.00 0.00 77 1018.9
20210619014621 80 68 5.0 6.0 0.00 0.00 0.00 78 1018.9
20210619014146 80 90 5.0 5.0 0.00 0.00 0.00 78 1018.6
20210619013711 80 68 4.0 4.0 0.00 0.00 0.00 79 1018.9
20210619013236 80 90 2.0 5.0 0.00 0.00 0.00 79 1018.9
20210619012328 80 68 5.0 5.0 0.00 0.00 0.00 78 1018.6
20210619011853 80 68 4.0 5.0 0.00 0.00 0.00 78 1018.6
20210619011418 80 68 4.0 5.0 0.00 0.00 0.00 78 1018.6
20210619010512 80 45 4.0 4.0 0.00 0.00 0.00 77 1018.6
20210619010036 80 68 3.0 5.0 0.00 0.00 0.00 76 1018.6
20210619005601 80 68 4.0 5.0 0.00 0.00 0.00 76 1018.6
20210619004654 79 68 4.0 4.0 0.00 0.00 0.00 76 1018.6
20210619004219 79 68 4.0 5.0 0.00 0.00 0.00 76 1018.6
20210619003744 80 23 3.0 5.0 0.00 0.00 0.00 76 1018.6
20210619003309 80 45 5.0 5.0 0.00 0.00 0.00 76 1018.6
20210619002834 80 45 5.0 5.0 0.00 0.00 0.00 76 1018.6
20210619001926 80 45 5.0 6.0 0.00 0.00 0.00 75 1018.6
20210619000548 80 68 4.0 5.0 0.00 0.00 0.00 74 1018.9
20210619000113 80 45 5.0 6.0 0.00 0.00 0.00 74 1018.6
20210618235637 80 45 4.0 5.0 0.00 0.00 0.00 74 1018.9
20210618235202 80 68 4.0 6.0 0.00 0.00 0.00 73 1018.9
20210618234727 80 68 4.0 8.0 0.00 0.00 0.00 72 1018.9
20210618234252 80 68 5.0 7.0 0.00 0.00 0.00 72 1018.9
20210618233345 80 68 6.0 6.0 0.00 0.00 0.00 71 1018.6
20210618232006 80 68 6.0 8.0 0.00 0.00 0.00 70 1018.2
20210618231531 80 23 6.0 9.0 0.00 0.00 0.00 69 1018.2
20210618231056 81 45 8.0 8.0 0.00 0.00 0.00 69 1018.2
20210618230621 81 0 6.0 8.0 0.00 0.00 0.00 69 1018.2
20210618225714 81 23 7.0 9.0 0.00 0.00 0.00 69 1018.2
20210618225239 81 45 9.0 9.0 0.00 0.00 0.00 69 1018.2
20210618224804 81 23 6.0 7.0 0.00 0.00 0.00 69 1018.2
20210618224329 81 45 7.0 8.0 0.00 0.00 0.00 68 1018.2
20210618223422 81 45 8.0 8.0 0.00 0.00 0.00 69 1017.9
20210618222947 81 45 5.0 6.0 0.00 0.00 0.00 69 1017.9
20210618222512 80 90 6.0 8.0 0.00 0.00 0.00 70 1017.9
20210618222037 80 45 7.0 8.0 0.00 0.00 0.00 70 1017.9
20210618220225 81 68 6.0 8.0 0.00 0.00 0.00 69 1017.9
20210618215318 81 45 7.0 8.0 0.00 0.00 0.00 69 1017.9
20210618214843 81 45 6.0 7.0 0.00 0.00 0.00 68 1017.9
20210618214408 81 45 6.0 8.0 0.00 0.00 0.00 67 1017.9
20210618213933 81 68 7.0 8.0 0.00 0.00 0.00 66 1017.9
20210618213458 81 23 8.0 8.0 0.00 0.00 0.00 66 1017.9
20210618213023 82 68 7.0 10.0 0.00 0.00 0.00 66 1017.9
20210618212548 82 45 10.0 9.0 0.00 0.00 0.00 64 1017.9
20210618212113 82 68 9.0 9.0 0.00 0.00 0.00 64 1017.9
20210618211206 82 45 6.0 6.0 0.00 0.00 0.00 64 1017.9
20210618210731 82 68 7.0 9.0 0.00 0.00 0.00 64 1017.9
20210618210256 82 45 9.0 10.0 0.00 0.00 0.00 62 1017.9
20210618205350 82 68 5.0 10.0 0.00 0.08 0.00 65 1017.6
20210618204914 82 90 7.0 8.0 0.00 0.08 0.00 66 1017.6
20210618204439 82 23 8.0 10.0 0.00 0.08 0.00 66 1017.6
20210618204004 82 23 7.0 9.0 0.00 0.08 0.00 66 1017.6
20210618203528 82 23 8.0 10.0 0.00 0.08 0.00 65 1017.9
20210618203054 83 45 9.0 11.0 0.00 0.08 0.00 65 1017.6
20210618202618 83 68 9.0 12.0 0.00 0.08 0.00 64 1017.9
20210618202143 83 68 11.0 11.0 0.00 0.08 0.00 62 1017.9
20210618201709 84 68 10.0 10.0 0.00 0.08 0.00 61 1017.6
20210618201233 84 23 8.0 9.0 0.00 0.08 0.00 60 1017.6
20210618200758 84 23 8.0 8.0 0.00 0.08 0.00 60 1017.6
20210618195419 84 45 8.0 10.0 0.00 0.08 0.00 60 1017.6
20210618194944 84 68 8.0 10.0 0.00 0.08 0.00 60 1017.6
20210618194509 84 68 10.0 10.0 0.00 0.08 0.00 60 1017.6
20210618193602 85 68 6.0 9.0 0.00 0.08 0.00 59 1017.6
20210618193127 85 68 7.0 9.0 0.00 0.08 0.00 57 1017.6
20210618192652 85 68 8.0 11.0 0.00 0.08 0.00 56 1017.6
20210618191745 86 68 9.0 11.0 0.00 0.08 0.00 56 1017.6
20210618191309 86 45 10.0 10.0 0.00 0.08 0.00 55 1017.6
20210618190835 86 68 9.0 10.0 0.00 0.08 0.00 55 1017.6
20210618190400 86 68 8.0 11.0 0.00 0.08 0.00 54 1017.6
20210618185925 86 68 13.0 13.0 0.00 0.08 0.00 57 1017.6
20210618185449 87 113 5.0 10.0 0.00 0.08 0.00 57 1017.6
20210618185015 86 45 7.0 8.0 0.00 0.08 0.00 57 1017.9
20210618184539 86 68 6.0 10.0 0.00 0.08 0.00 58 1017.9
20210618184104 86 45 7.0 10.0 0.00 0.08 0.00 59 1017.9
20210618183630 86 90 5.0 5.0 0.00 0.08 0.00 58 1017.9
20210618183154 85 45 7.0 8.0 0.00 0.08 0.00 60 1017.9
20210618182719 85 45 8.0 8.0 0.00 0.08 0.00 59 1017.9
20210618182244 85 45 5.0 8.0 0.00 0.08 0.00 60 1017.9
20210618181809 85 45 6.0 7.0 0.00 0.08 0.00 61 1017.9
20210618180902 84 45 5.0 6.0 0.00 0.08 0.00 61 1017.9
20210618180427 84 68 5.0 10.0 0.00 0.08 0.00 61 1018.2
20210618175952 84 0 7.0 7.0 0.00 0.08 0.00 60 1018.2
20210618175045 84 68 9.0 13.0 0.00 0.08 0.00 62 1018.2
20210618174609 84 23 9.0 9.0 0.00 0.08 0.00 62 1018.2
20210618174134 84 45 8.0 13.0 0.00 0.08 0.00 61 1018.6
20210618173659 84 90 8.0 11.0 0.00 0.08 0.00 60 1018.6
20210618172752 85 23 8.0 10.0 0.00 0.08 0.00 58 1018.6
20210618172317 85 45 10.0 10.0 0.00 0.08 0.00 57 1018.6
20210618171842 86 45 8.0 8.0 0.00 0.08 0.00 57 1018.6
20210618171407 85 90 6.0 9.0 0.00 0.08 0.00 58 1018.6
20210618170932 84 68 6.0 9.0 0.00 0.08 0.00 61 1018.6
20210618170457 84 90 9.0 10.0 0.00 0.08 0.00 60 1018.6
20210618170022 84 68 6.0 8.0 0.00 0.08 0.00 59 1018.6
20210618165547 85 68 7.0 10.0 0.00 0.08 0.00 58 1018.6
20210618165112 85 23 7.0 9.0 0.00 0.08 0.00 58 1018.9
20210618164637 85 45 6.0 11.0 0.00 0.08 0.00 57 1018.9
20210618164202 85 68 8.0 9.0 0.00 0.08 0.00 55 1018.9
20210618163727 86 90 6.0 8.0 0.00 0.08 0.00 57 1018.9
20210618163252 86 68 9.0 9.0 0.00 0.08 0.00 56 1018.9
20210618162816 85 68 9.0 11.0 0.00 0.08 0.00 56 1018.9
20210618162342 85 90 6.0 10.0 0.00 0.08 0.00 57 1018.9
20210618161906 86 68 10.0 10.0 0.00 0.08 0.00 57 1018.9
20210618161431 86 90 10.0 11.0 0.00 0.08 0.00 56 1018.9
20210618160956 86 90 8.0 8.0 0.00 0.08 0.00 54 1018.9
20210618160521 87 68 9.0 9.0 0.00 0.08 0.00 56 1018.9
20210618160046 86 23 3.0 6.0 0.00 0.08 0.00 55 1018.9
20210618155611 87 45 6.0 6.0 0.00 0.08 0.00 56 1018.9
20210618155136 87 315 6.0 6.0 0.00 0.08 0.00 52 1018.9
20210618154701 87 203 1.0 3.0 0.00 0.08 0.00 53 1018.9
20210618154226 86 90 0.0 6.0 0.00 0.08 0.00 54 1018.9
20210618153751 86 0 6.0 6.0 0.00 0.08 0.00 53 1018.9
20210618153316 87 0 5.0 5.0 0.00 0.08 0.00 53 1018.9
20210618152841 87 90 1.0 3.0 0.00 0.08 0.00 53 1018.9
20210618151030 87 113 1.0 3.0 0.00 0.08 0.00 53 1019.3
20210618150122 86 158 4.0 2.0 0.00 0.08 0.00 53 1019.3
20210618145647 86 158 1.0 1.0 0.00 0.08 0.00 54 1019.3